Home > Weather > Raleigh > Past weeks

Flag for U.S.A. Weather for the Past 2 Weeks in Raleigh, North Carolina, U.S.A.

Now
42 °F

Passing clouds.


Feels Like: 37 °F
Forecast: 32 / 52 °F
Wind: 8 mph from North

Location: Raleigh-Durham International Airport

Current Time: Feb 7, 2016 at 7:51:10 PM

Latest Report: Feb 7, 2016 at 6:51 PM


Visibility: 10 mi

Pressure: 29.88 "Hg

Humidity: 47%

Dew point: 23 °F

Location of RaleighLocation

Historic Weather in Raleigh — Graph

°F

Raleigh Temperature Yesterday

Maximum temperature yesterday: 47 °F (at 1:51 PM)
Minimum temperature yesterday: 27 °F (at 4:51 AM)
Average temperature yesterday: 37 °F

High & Low Weather Summary for the Past Weeks

 TemperatureHumidityPressure
High72 °F (Feb 1, 2:51 PM)97% (Jan 26, 3:51 AM)30.47 "Hg (Jan 26, 3:51 AM)
Low25 °F (Jan 25, 4:51 AM)20% (Jan 24, 3:51 PM)29.68 "Hg (Jan 29, 3:51 AM)
Average46 °F66%30.09 "Hg
* Reported Jan 23 5:51 PM — Feb 7 5:51 PM, Raleigh, Weather by CustomWeather, © 2016

Note: Actual official high and low records may vary slightly from our data, if they occured in-between our weather recording intervals... More about our weather records

Advertising

Raleigh Weather History for the Previous 24 Hours

 ConditionsComfort  
Time TempWeatherWind HumidityBarometerVisibility
5:51 PM
Sun, Feb 7
43 °FPassing clouds.7 mph45%29.88 "Hg10 mi
4:51 PM44 °FOvercast.10 mph40%29.89 "Hg10 mi
3:51 PM44 °FOvercast.9 mph38%29.92 "Hg10 mi
2:51 PM43 °FOvercast.7 mph43%29.94 "Hg10 mi
1:51 PM42 °FOvercast.9 mph45%29.96 "Hg10 mi
12:51 PM41 °FOvercast.12 mph47%30.00 "Hg10 mi
11:51 AM40 °FOvercast.7 mph49%30.04 "Hg10 mi
10:51 AM39 °FOvercast.6 mph53%30.05 "Hg10 mi
9:51 AM38 °FOvercast.13 mph55%30.08 "Hg10 mi
8:51 AM38 °FOvercast.6 mph60%30.11 "Hg10 mi
7:51 AM37 °FOvercast.7 mph62%30.10 "Hg10 mi
6:51 AM37 °FOvercast.9 mph62%30.11 "Hg10 mi
5:51 AM37 °FOvercast.5 mph62%30.12 "Hg10 mi
4:51 AM38 °FOvercast.6 mph58%30.14 "Hg10 mi
3:51 AM38 °FOvercast.5 mph60%30.15 "Hg10 mi
2:51 AM39 °FOvercast.3 mph55%30.18 "Hg10 mi
1:51 AM39 °FOvercast.7 mph55%30.19 "Hg10 mi
12:51 AM39 °FOvercast.5 mph57%30.24 "Hg10 mi
11:51 PM
Sat, Feb 6
39 °FOvercast.3 mph53%30.28 "Hg10 mi
10:51 PM38 °FOvercast.3 mph53%30.25 "Hg10 mi
9:51 PM39 °FOvercast.6 mph53%30.28 "Hg10 mi
8:51 PM41 °FOvercast.6 mph45%30.29 "Hg10 mi
7:51 PM38 °FPassing clouds.No wind58%30.32 "Hg10 mi
Weather by CustomWeather, © 2016

See weather overviewHow to use our weather pages